| time (UTC) | temp F | wind direction | speed MPH | gust MPH | rain 1hr in | rain 24hr in | rain mn in | humidity % | barometer mb |
| 20260507090208 | 57 | 0.0 | 4.0 | 0.00 | 0.00 | 0.00 | 88 | 1016.6 | |
| 20260507085704 | 58 | 0.0 | 3.0 | 0.00 | 0.00 | 0.00 | 88 | 1016.6 | |
| 20260507085203 | 58 | 0.0 | 3.0 | 0.00 | 0.00 | 0.00 | 88 | 1016.6 | |
| 20260507084700 | 58 | 0.0 | 1.0 | 0.00 | 0.00 | 0.00 | 88 | 1016.3 | |
| 20260507084157 | 58 | 0.0 | 2.0 | 0.00 | 0.00 | 0.00 | 88 | 1016.6 | |
| 20260507083654 | 58 | 0.0 | 2.0 | 0.00 | 0.00 | 0.00 | 88 | 1016.4 | |
| 20260507083152 | 58 | 0.0 | 0.0 | 0.00 | 0.00 | 0.00 | 87 | 1016.1 | |
| 20260507082650 | 58 | 0.0 | 2.0 | 0.00 | 0.00 | 0.00 | 87 | 1016.2 | |
| 20260507082147 | 58 | 0.0 | 2.0 | 0.00 | 0.00 | 0.00 | 87 | 1016.2 | |
| 20260507081644 | 58 | 0.0 | 0.0 | 0.00 | 0.00 | 0.00 | 87 | 1016.2 | |
| 20260507081142 | 58 | 0.0 | 0.0 | 0.00 | 0.00 | 0.00 | 87 | 1016.2 | |
| 20260507080640 | 58 | 0.0 | 2.0 | 0.00 | 0.00 | 0.00 | 87 | 1016.3 | |
| 20260507080137 | 58 | 0.0 | 2.0 | 0.00 | 0.00 | 0.00 | 87 | 1015.6 | |
| 20260507075634 | 58 | 0.0 | 0.0 | 0.00 | 0.00 | 0.00 | 87 | 1015.6 | |
| 20260507075132 | 58 | 0.0 | 0.0 | 0.00 | 0.00 | 0.00 | 87 | 1015.8 | |
| 20260507074628 | 58 | 0.0 | 1.0 | 0.00 | 0.00 | 0.00 | 87 | 1015.9 | |
| 20260507074127 | 58 | 0.0 | 2.0 | 0.00 | 0.00 | 0.00 | 86 | 1015.6 | |
| 20260507073624 | 58 | 0.0 | 4.0 | 0.00 | 0.00 | 0.00 | 86 | 1015.3 | |
| 20260507073122 | 58 | 0.0 | 4.0 | 0.00 | 0.00 | 0.00 | 86 | 1015.3 | |
| 20260507072618 | 58 | 0.0 | 3.0 | 0.00 | 0.00 | 0.00 | 86 | 1015.5 | |
| 20260507072117 | 58 | 0.0 | 3.0 | 0.00 | 0.00 | 0.00 | 86 | 1015.7 | |
| 20260507071614 | 58 | 0.0 | 0.0 | 0.00 | 0.00 | 0.00 | 86 | 1015.8 | |
| 20260507071112 | 58 | 0.0 | 4.0 | 0.00 | 0.00 | 0.00 | 86 | 1015.7 | |
| 20260507070608 | 58 | 0.0 | 4.0 | 0.00 | 0.00 | 0.00 | 85 | 1015.7 | |
| 20260507070107 | 58 | 0.0 | 0.0 | 0.00 | 0.00 | 0.00 | 85 | 1015.8 | |
| 20260507065604 | 59 | 0.0 | 0.0 | 0.00 | 0.00 | 0.00 | 85 | 1015.5 | |
| 20260507065102 | 59 | 0.0 | 2.0 | 0.00 | 0.00 | 0.00 | 85 | 1015.3 | |
| 20260507064558 | 59 | 0.0 | 2.0 | 0.00 | 0.00 | 0.00 | 85 | 1015.4 | |
| 20260507064057 | 59 | 0.0 | 0.0 | 0.00 | 0.00 | 0.00 | 84 | 1015.4 | |
| 20260507063554 | 59 | 0.0 | 0.0 | 0.00 | 0.00 | 0.00 | 84 | 1015.6 | |
| 20260507063052 | 59 | 0.0 | 0.0 | 0.00 | 0.00 | 0.00 | 84 | 1015.5 | |
| 20260507062548 | 59 | 0.0 | 4.0 | 0.00 | 0.00 | 0.00 | 84 | 1015.5 | |
| 20260507062046 | 59 | 0.0 | 4.0 | 0.00 | 0.00 | 0.00 | 84 | 1015.8 | |
| 20260507061544 | 59 | 0.0 | 3.0 | 0.00 | 0.00 | 0.00 | 84 | 1015.8 | |
| 20260507061041 | 59 | 0.0 | 4.0 | 0.00 | 0.00 | 0.00 | 83 | 1015.8 | |
| 20260507060538 | 59 | 0.0 | 4.0 | 0.00 | 0.00 | 0.00 | 83 | 1016.1 | |
| 20260507060036 | 59 | 0.0 | 1.0 | 0.00 | 0.00 | 0.00 | 83 | 1015.8 | |
| 20260507055534 | 59 | 0.0 | 1.0 | 0.00 | 0.00 | 0.00 | 83 | 1015.5 | |
| 20260507055031 | 59 | 0.0 | 0.0 | 0.00 | 0.00 | 0.00 | 83 | 1015.6 | |
| 20260507054528 | 59 | 0.0 | 2.0 | 0.00 | 0.00 | 0.00 | 83 | 1015.7 | |
| 20260507054026 | 59 | 0.0 | 2.0 | 0.00 | 0.00 | 0.00 | 84 | 1015.5 | |
| 20260507053524 | 60 | 0.0 | 2.0 | 0.00 | 0.00 | 0.00 | 84 | 1015.3 | |
| 20260507053021 | 60 | 0.0 | 2.0 | 0.00 | 0.00 | 0.00 | 84 | 1015.3 | |
| 20260507052518 | 60 | 0.0 | 1.0 | 0.00 | 0.00 | 0.00 | 84 | 1015.6 | |
| 20260507052016 | 60 | 0.0 | 2.0 | 0.00 | 0.00 | 0.00 | 84 | 1015.7 | |
| 20260507051512 | 60 | 0.0 | 2.0 | 0.00 | 0.00 | 0.00 | 84 | 1015.6 | |
| 20260507051011 | 60 | 0.0 | 0.0 | 0.00 | 0.00 | 0.00 | 84 | 1015.7 | |
| 20260507050508 | 60 | 0.0 | 4.0 | 0.00 | 0.00 | 0.00 | 83 | 1015.6 | |
| 20260507050006 | 60 | 0.0 | 4.0 | 0.00 | 0.00 | 0.00 | 83 | 1015.5 | |
| 20260507045504 | 60 | 0.0 | 1.0 | 0.00 | 0.00 | 0.00 | 83 | 1015.8 | |
| 20260507045001 | 60 | 0.0 | 1.0 | 0.00 | 0.00 | 0.00 | 83 | 1015.6 | |
| 20260507044458 | 60 | 0.0 | 3.0 | 0.00 | 0.00 | 0.00 | 83 | 1015.6 | |
| 20260507043956 | 60 | 0.0 | 3.0 | 0.00 | 0.00 | 0.00 | 83 | 1015.4 | |
| 20260507043452 | 60 | 0.0 | 2.0 | 0.00 | 0.00 | 0.00 | 83 | 1015.8 | |
| 20260507042951 | 60 | 0.0 | 3.0 | 0.00 | 0.00 | 0.00 | 83 | 1015.7 | |
| 20260507042448 | 60 | 0.0 | 3.0 | 0.00 | 0.00 | 0.00 | 83 | 1015.6 | |
| 20260507041945 | 60 | 0.0 | 1.0 | 0.00 | 0.00 | 0.00 | 83 | 1015.7 | |
| 20260507041442 | 60 | 0.0 | 1.0 | 0.00 | 0.00 | 0.00 | 83 | 1015.8 | |
| 20260507040940 | 60 | 0.0 | 0.0 | 0.00 | 0.00 | 0.00 | 83 | 1015.9 | |
| 20260507040438 | 60 | 0.0 | 1.0 | 0.00 | 0.00 | 0.00 | 83 | 1016.0 | |
| 20260507035935 | 60 | 0.0 | 1.0 | 0.00 | 0.00 | 0.00 | 83 | 1016.1 | |
| 20260507035432 | 60 | 0.0 | 2.0 | 0.00 | 0.00 | 0.00 | 83 | 1015.7 | |
| 20260507034930 | 60 | 0.0 | 2.0 | 0.00 | 0.00 | 0.00 | 84 | 1015.3 | |
| 20260507034428 | 61 | 0.0 | 1.0 | 0.00 | 0.00 | 0.00 | 84 | 1015.5 | |
| 20260507033925 | 61 | 0.0 | 1.0 | 0.00 | 0.00 | 0.00 | 84 | 1015.5 | |
| 20260507033422 | 61 | 0.0 | 1.0 | 0.00 | 0.00 | 0.00 | 84 | 1015.5 | |
| 20260507032920 | 61 | 0.0 | 1.0 | 0.00 | 0.00 | 0.00 | 84 | 1015.6 | |
| 20260507032417 | 60 | 0.0 | 6.0 | 0.00 | 0.00 | 0.00 | 84 | 1015.5 | |
| 20260507031915 | 61 | 0.0 | 6.0 | 0.00 | 0.00 | 0.00 | 84 | 1015.1 | |
| 20260507031412 | 61 | 0.0 | 3.0 | 0.00 | 0.00 | 0.00 | 85 | 1015.0 | |
| 20260507030910 | 61 | 0.0 | 5.0 | 0.00 | 0.00 | 0.00 | 85 | 1015.1 | |
| 20260507030407 | 61 | 0.0 | 2.0 | 0.00 | 0.00 | 0.00 | 85 | 1014.9 | |
| 20260507025905 | 61 | 0.0 | 3.0 | 0.00 | 0.00 | 0.00 | 85 | 1015.3 | |
| 20260507025402 | 61 | 0.0 | 4.0 | 0.00 | 0.00 | 0.00 | 85 | 1015.4 | |
| 20260507024900 | 60 | 0.0 | 4.0 | 0.00 | 0.00 | 0.00 | 85 | 1015.4 | |
| 20260507024357 | 60 | 0.0 | 4.0 | 0.00 | 0.00 | 0.00 | 85 | 1015.4 | |
| 20260507023855 | 60 | 0.0 | 4.0 | 0.00 | 0.00 | 0.00 | 85 | 1015.2 | |
| 20260507023351 | 60 | 0.0 | 4.0 | 0.00 | 0.00 | 0.00 | 85 | 1014.9 | |
| 20260507022850 | 60 | 0.0 | 4.0 | 0.00 | 0.00 | 0.00 | 85 | 1014.9 | |
| 20260507022347 | 60 | 0.0 | 4.0 | 0.00 | 0.00 | 0.00 | 85 | 1014.9 | |
| 20260507021844 | 60 | 0.0 | 2.0 | 0.00 | 0.00 | 0.00 | 85 | 1014.9 | |
| 20260507021341 | 60 | 0.0 | 5.0 | 0.00 | 0.00 | 0.00 | 84 | 1014.9 | |
| 20260507020839 | 60 | 0.0 | 5.0 | 0.00 | 0.00 | 0.00 | 84 | 1014.9 | |
| 20260507020317 | 60 | 0.0 | 3.0 | 0.00 | 0.00 | 0.00 | 84 | 1014.8 | |
| 20260507015815 | 60 | 0.0 | 3.0 | 0.00 | 0.00 | 0.00 | 84 | 1014.7 | |
| 20260507015313 | 60 | 0.0 | 0.0 | 0.00 | 0.00 | 0.00 | 84 | 1014.6 | |
| 20260507014809 | 60 | 0.0 | 1.0 | 0.00 | 0.00 | 0.00 | 84 | 1014.3 | |
| 20260507014307 | 60 | 0.0 | 1.0 | 0.00 | 0.00 | 0.00 | 84 | 1014.3 | |
| 20260507013805 | 60 | 0.0 | 3.0 | 0.00 | 0.00 | 0.00 | 84 | 1014.3 | |
| 20260507013303 | 60 | 0.0 | 3.0 | 0.00 | 0.00 | 0.00 | 84 | 1014.2 | |
| 20260507012759 | 60 | 0.0 | 1.0 | 0.00 | 0.00 | 0.00 | 84 | 1013.9 | |
| 20260507012257 | 60 | 0.0 | 0.0 | 0.00 | 0.00 | 0.00 | 84 | 1013.7 | |
| 20260507011755 | 60 | 0.0 | 0.0 | 0.00 | 0.00 | 0.00 | 84 | 1013.9 | |
| 20260507010749 | 61 | 0.0 | 2.0 | 0.00 | 0.00 | 0.00 | 84 | 1013.8 | |
| 20260507010247 | 61 | 0.0 | 2.0 | 0.00 | 0.00 | 0.00 | 84 | 1013.5 | |
| 20260507005745 | 61 | 0.0 | 3.0 | 0.00 | 0.00 | 0.00 | 83 | 1013.6 | |
| 20260507005243 | 61 | 0.0 | 3.0 | 0.00 | 0.00 | 0.00 | 83 | 1013.2 | |
| 20260507004739 | 61 | 0.0 | 4.0 | 0.00 | 0.00 | 0.00 | 83 | 1013.2 | |
| 20260507004237 | 61 | 0.0 | 4.0 | 0.00 | 0.00 | 0.00 | 83 | 1013.5 | |
| 20260507003735 | 61 | 0.0 | 2.0 | 0.00 | 0.00 | 0.00 | 83 | 1013.4 | |
| 20260507003233 | 61 | 0.0 | 3.0 | 0.00 | 0.00 | 0.00 | 83 | 1013.2 | |
| 20260507002729 | 61 | 0.0 | 3.0 | 0.00 | 0.00 | 0.00 | 83 | 1013.0 | |
| 20260507002227 | 61 | 0.0 | 2.0 | 0.00 | 0.00 | 0.00 | 83 | 1013.2 | |
| 20260507001725 | 61 | 0.0 | 1.0 | 0.00 | 0.00 | 0.00 | 83 | 1013.1 | |
| 20260507001223 | 61 | 0.0 | 2.0 | 0.00 | 0.00 | 0.00 | 82 | 1013.1 | |
| 20260507000719 | 61 | 0.0 | 2.0 | 0.00 | 0.00 | 0.00 | 82 | 1013.0 | |
| 20260507000219 | 61 | 0.0 | 3.0 | 0.00 | 0.00 | 0.00 | 82 | 1013.2 | |
| 20260506235715 | 61 | 0.0 | 4.0 | 0.00 | 0.00 | 0.00 | 82 | 1013.1 | |
| 20260506235213 | 61 | 0.0 | 4.0 | 0.00 | 0.00 | 0.00 | 82 | 1013.1 | |
| 20260506234709 | 62 | 0.0 | 5.0 | 0.00 | 0.00 | 0.00 | 82 | 1013.1 | |
| 20260506234207 | 61 | 0.0 | 5.0 | 0.00 | 0.00 | 0.00 | 83 | 1013.0 | |
| 20260506233705 | 61 | 0.0 | 3.0 | 0.00 | 0.00 | 0.00 | 82 | 1012.7 | |
| 20260506233205 | 61 | 0.0 | 3.0 | 0.00 | 0.00 | 0.00 | 82 | 1012.9 | |
| 20260506232659 | 61 | 0.0 | 5.0 | 0.00 | 0.00 | 0.00 | 82 | 1013.0 | |
| 20260506232157 | 61 | 0.0 | 9.0 | 0.00 | 0.00 | 0.00 | 82 | 1012.9 | |
| 20260506231653 | 61 | 0.0 | 9.0 | 0.00 | 0.00 | 0.00 | 81 | 1013.4 | |
| 20260506231151 | 61 | 0.0 | 11.0 | 0.00 | 0.00 | 0.00 | 81 | 1013.2 | |
| 20260506230649 | 62 | 328 | 1.0 | 11.0 | 0.00 | 0.00 | 0.00 | 82 | 1013.0 |
| 20260506230147 | 62 | 0.0 | 5.0 | 0.00 | 0.00 | 0.00 | 81 | 1012.7 | |
| 20260506225643 | 62 | 0.0 | 4.0 | 0.00 | 0.00 | 0.00 | 82 | 1013.1 | |
| 20260506225141 | 61 | 0.0 | 5.0 | 0.00 | 0.00 | 0.00 | 82 | 1012.6 | |
| 20260506224639 | 61 | 0.0 | 5.0 | 0.00 | 0.00 | 0.00 | 83 | 1013.0 | |
| 20260506224137 | 61 | 0.0 | 8.0 | 0.00 | 0.00 | 0.00 | 83 | 1012.9 | |
| 20260506223633 | 61 | 15 | 1.0 | 8.0 | 0.00 | 0.00 | 0.00 | 83 | 1012.8 |
| 20260506223131 | 61 | 0.0 | 4.0 | 0.00 | 0.00 | 0.00 | 83 | 1012.7 | |
| 20260506222629 | 61 | 4 | 1.0 | 6.0 | 0.00 | 0.00 | 0.00 | 83 | 1012.8 |
| 20260506222127 | 61 | 0.0 | 11.0 | 0.00 | 0.00 | 0.00 | 84 | 1012.5 | |
| 20260506221623 | 60 | 341 | 2.0 | 11.0 | 0.00 | 0.00 | 0.00 | 84 | 1012.8 |
| 20260506221121 | 60 | 1.0 | 4.0 | 0.00 | 0.00 | 0.00 | 84 | 1012.8 | |
| 20260506220619 | 60 | 1.0 | 6.0 | 0.00 | 0.00 | 0.00 | 84 | 1013.0 | |
| 20260506220117 | 60 | 0.0 | 3.0 | 0.00 | 0.00 | 0.00 | 84 | 1013.0 | |
| 20260506215613 | 60 | 0.0 | 5.0 | 0.00 | 0.00 | 0.00 | 84 | 1012.9 | |
| 20260506215111 | 60 | 0.0 | 10.0 | 0.00 | 0.00 | 0.00 | 84 | 1012.8 | |
| 20260506214609 | 59 | 20 | 1.0 | 10.0 | 0.00 | 0.00 | 0.00 | 84 | 1012.8 |
| 20260506214107 | 60 | 29 | 1.0 | 9.0 | 0.00 | 0.00 | 0.00 | 84 | 1012.7 |
| 20260506213603 | 60 | 14 | 1.0 | 10.0 | 0.00 | 0.00 | 0.00 | 83 | 1012.8 |
| 20260506213101 | 60 | 32 | 2.0 | 10.0 | 0.00 | 0.00 | 0.00 | 84 | 1012.9 |
| 20260506212559 | 60 | 0.0 | 8.0 | 0.00 | 0.00 | 0.00 | 84 | 1013.0 | |
| 20260506212057 | 60 | 0.0 | 10.0 | 0.00 | 0.00 | 0.00 | 84 | 1013.1 | |
| 20260506211553 | 60 | 0.0 | 10.0 | 0.00 | 0.00 | 0.00 | 83 | 1013.1 | |
| 20260506211051 | 60 | 2 | 2.0 | 10.0 | 0.00 | 0.00 | 0.00 | 83 | 1013.1 |
| 20260506210549 | 60 | 6 | 2.0 | 10.0 | 0.00 | 0.00 | 0.00 | 83 | 1013.2 |
| 20260506210047 | 60 | 351 | 2.0 | 12.0 | 0.00 | 0.00 | 0.00 | 83 | 1013.1 |
| 20260506205543 | 60 | 8 | 4.0 | 11.0 | 0.00 | 0.00 | 0.00 | 83 | 1013.1 |
| 20260506205041 | 60 | 348 | 3.0 | 11.0 | 0.00 | 0.00 | 0.00 | 82 | 1013.2 |
| 20260506204539 | 61 | 10 | 2.0 | 8.0 | 0.00 | 0.00 | 0.00 | 83 | 1013.2 |
| 20260506204035 | 60 | 1.0 | 8.0 | 0.00 | 0.00 | 0.00 | 83 | 1013.1 | |
| 20260506203533 | 60 | 22 | 2.0 | 9.0 | 0.00 | 0.00 | 0.00 | 83 | 1013.2 |
| 20260506203031 | 61 | 7 | 2.0 | 9.0 | 0.00 | 0.00 | 0.00 | 82 | 1013.3 |
| 20260506202527 | 61 | 0.0 | 8.0 | 0.00 | 0.00 | 0.00 | 82 | 1013.3 | |
| 20260506202025 | 61 | 21 | 1.0 | 7.0 | 0.00 | 0.00 | 0.00 | 83 | 1013.3 |
| 20260506201523 | 60 | 17 | 1.0 | 13.0 | 0.00 | 0.00 | 0.00 | 83 | 1013.0 |
| 20260506201021 | 60 | 4 | 2.0 | 13.0 | 0.00 | 0.00 | 0.00 | 83 | 1013.1 |
| 20260506200517 | 60 | 23 | 1.0 | 11.0 | 0.00 | 0.00 | 0.00 | 83 | 1013.1 |
| 20260506200015 | 61 | 1 | 2.0 | 10.0 | 0.00 | 0.00 | 0.00 | 82 | 1013.2 |
| 20260506195513 | 61 | 359 | 2.0 | 10.0 | 0.00 | 0.00 | 0.00 | 81 | 1013.2 |
| 20260506195011 | 62 | 16 | 1.0 | 11.0 | 0.00 | 0.00 | 0.00 | 82 | 1013.2 |
| 20260506194507 | 62 | 10 | 3.0 | 11.0 | 0.00 | 0.00 | 0.00 | 81 | 1013.2 |
| 20260506194005 | 62 | 3 | 1.0 | 11.0 | 0.00 | 0.00 | 0.00 | 81 | 1013.1 |
| 20260506193503 | 62 | 358 | 1.0 | 11.0 | 0.00 | 0.00 | 0.00 | 82 | 1013.0 |
| 20260506193002 | 62 | 315 | 2.0 | 12.0 | 0.00 | 0.00 | 0.00 | 81 | 1013.1 |
| 20260506192459 | 63 | 353 | 2.0 | 12.0 | 0.00 | 0.00 | 0.00 | 80 | 1013.2 |
| 20260506191957 | 63 | 23 | 2.0 | 9.0 | 0.00 | 0.00 | 0.00 | 80 | 1013.2 |
| 20260506191453 | 64 | 343 | 1.0 | 9.0 | 0.00 | 0.00 | 0.00 | 80 | 1013.2 |
| 20260506190951 | 64 | 1.0 | 4.0 | 0.00 | 0.00 | 0.00 | 81 | 1013.2 | |
| 20260506190449 | 64 | 0.0 | 4.0 | 0.00 | 0.00 | 0.00 | 82 | 1013.1 | |
| 20260506185947 | 64 | 0.0 | 13.0 | 0.00 | 0.00 | 0.00 | 81 | 1013.1 | |
| 20260506185443 | 65 | 10 | 1.0 | 9.0 | 0.00 | 0.00 | 0.00 | 82 | 1013.0 |
| 20260506184941 | 65 | 353 | 1.0 | 9.0 | 0.00 | 0.00 | 0.00 | 81 | 1013.0 |
| 20260506184439 | 66 | 1.0 | 8.0 | 0.00 | 0.00 | 0.00 | 81 | 1012.9 | |
| 20260506183937 | 66 | 14 | 1.0 | 11.0 | 0.00 | 0.00 | 0.00 | 81 | 1012.8 |
| 20260506183433 | 67 | 350 | 2.0 | 11.0 | 0.00 | 0.00 | 0.00 | 78 | 1012.9 |
| 20260506182931 | 68 | 4 | 1.0 | 13.0 | 0.00 | 0.00 | 0.00 | 77 | 1013.0 |
| 20260506182429 | 70 | 352 | 2.0 | 13.0 | 0.00 | 0.00 | 0.00 | 74 | 1012.9 |
| 20260506181927 | 71 | 1.0 | 5.0 | 0.00 | 0.00 | 0.00 | 74 | 1012.8 | |
| 20260506181423 | 71 | 0.0 | 3.0 | 0.00 | 0.00 | 0.00 | 75 | 1012.8 | |
| 20260506180921 | 71 | 0.0 | 6.0 | 0.00 | 0.00 | 0.00 | 76 | 1012.7 | |
| 20260506180419 | 71 | 38 | 1.0 | 9.0 | 0.00 | 0.00 | 0.00 | 76 | 1012.7 |
| 20260506175917 | 70 | 359 | 1.0 | 9.0 | 0.00 | 0.00 | 0.00 | 76 | 1012.6 |
| 20260506175413 | 70 | 48 | 1.0 | 4.0 | 0.00 | 0.00 | 0.00 | 76 | 1012.6 |
| 20260506174911 | 70 | 0.0 | 4.0 | 0.00 | 0.00 | 0.00 | 76 | 1012.5 | |
| 20260506174409 | 70 | 0.0 | 2.0 | 0.00 | 0.00 | 0.00 | 77 | 1012.4 | |
| 20260506173907 | 69 | 0.0 | 0.0 | 0.00 | 0.00 | 0.00 | 78 | 1012.2 | |
| 20260506173403 | 69 | 0.0 | 0.0 | 0.00 | 0.00 | 0.00 | 78 | 1012.3 | |
| 20260506172901 | 69 | 0.0 | 0.0 | 0.00 | 0.00 | 0.00 | 79 | 1012.3 | |
| 20260506172357 | 69 | 0.0 | 0.0 | 0.00 | 0.00 | 0.00 | 79 | 1012.2 | |
| 20260506171855 | 68 | 0.0 | 0.0 | 0.00 | 0.00 | 0.00 | 78 | 1012.2 | |
| 20260506171353 | 68 | 0.0 | 0.0 | 0.00 | 0.00 | 0.00 | 80 | 1012.2 | |
| 20260506170851 | 67 | 0.0 | 0.0 | 0.00 | 0.00 | 0.00 | 79 | 1012.3 | |
| 20260506170347 | 67 | 0.0 | 0.0 | 0.00 | 0.00 | 0.00 | 81 | 1012.1 | |
| 20260506165845 | 66 | 0.0 | 0.0 | 0.00 | 0.00 | 0.00 | 81 | 1012.2 | |
| 20260506165343 | 66 | 0.0 | 0.0 | 0.00 | 0.00 | 0.00 | 83 | 1012.2 | |
| 20260506164841 | 65 | 0.0 | 0.0 | 0.00 | 0.00 | 0.00 | 83 | 1012.1 | |
| 20260506164337 | 65 | 0.0 | 0.0 | 0.00 | 0.00 | 0.00 | 84 | 1012.2 | |
| 20260506163835 | 64 | 0.0 | 0.0 | 0.00 | 0.00 | 0.00 | 85 | 1012.4 | |
| 20260506163332 | 63 | 0.0 | 0.0 | 0.00 | 0.00 | 0.00 | 88 | 1012.8 | |
| 20260506162830 | 62 | 0.0 | 1.0 | 0.00 | 0.00 | 0.00 | 90 | 1012.7 | |
| 20260506162327 | 61 | 0.0 | 1.0 | 0.00 | 0.00 | 0.00 | 91 | 1013.0 | |
| 20260506161825 | 60 | 0.0 | 1.0 | 0.00 | 0.00 | 0.00 | 91 | 1013.0 | |
| 20260506161323 | 60 | 0.0 | 2.0 | 0.00 | 0.00 | 0.00 | 90 | 1012.5 | |
| 20260506160820 | 60 | 0.0 | 2.0 | 0.00 | 0.00 | 0.00 | 90 | 1013.0 | |
| 20260506160316 | 60 | 0.0 | 4.0 | 0.00 | 0.00 | 0.00 | 90 | 1013.5 | |
| 20260506155814 | 60 | 0.0 | 4.0 | 0.00 | 0.00 | 0.00 | 90 | 1013.9 | |
| 20260506155312 | 60 | 27 | 1.0 | 6.0 | 0.00 | 0.00 | 0.00 | 90 | 1013.6 |
| 20260506154810 | 60 | 0.0 | 13.0 | 0.00 | 0.00 | 0.00 | 90 | 1013.5 | |
| 20260506154306 | 60 | 11 | 3.0 | 13.0 | 0.00 | 0.00 | 0.00 | 90 | 1013.9 |
| 20260506153804 | 61 | 30 | 1.0 | 10.0 | 0.00 | 0.00 | 0.00 | 90 | 1013.9 |
| 20260506153302 | 61 | 15 | 1.0 | 13.0 | 0.00 | 0.00 | 0.00 | 90 | 1014.0 |
| 20260506152800 | 61 | 360 | 1.0 | 13.0 | 0.00 | 0.00 | 0.00 | 90 | 1013.9 |
| 20260506152256 | 62 | 11 | 2.0 | 11.0 | 0.00 | 0.00 | 0.00 | 90 | 1013.4 |
| 20260506151754 | 62 | 13 | 1.0 | 12.0 | 0.00 | 0.00 | 0.00 | 90 | 1013.4 |
| 20260506151252 | 63 | 22 | 2.0 | 12.0 | 0.00 | 0.00 | 0.00 | 89 | 1013.3 |
| 20260506150751 | 63 | 360 | 1.0 | 9.0 | 0.00 | 0.00 | 0.00 | 90 | 1013.0 |
| 20260506150246 | 63 | 348 | 1.0 | 9.0 | 0.00 | 0.00 | 0.00 | 90 | 1012.7 |
| 20260506145744 | 63 | 0.0 | 5.0 | 0.00 | 0.00 | 0.00 | 90 | 1012.4 | |
| 20260506145240 | 63 | 1.0 | 6.0 | 0.00 | 0.00 | 0.00 | 90 | 1012.2 | |
| 20260506144738 | 64 | 26 | 1.0 | 11.0 | 0.00 | 0.00 | 0.00 | 89 | 1012.0 |
| 20260506144236 | 64 | 27 | 2.0 | 11.0 | 0.00 | 0.00 | 0.00 | 88 | 1011.9 |
| 20260506143734 | 65 | 15 | 2.0 | 11.0 | 0.00 | 0.00 | 0.00 | 89 | 1011.7 |
| 20260506143230 | 65 | 46 | 1.0 | 6.0 | 0.00 | 0.00 | 0.00 | 89 | 1011.9 |
| 20260506142728 | 66 | 17 | 1.0 | 6.0 | 0.00 | 0.00 | 0.00 | 88 | 1012.0 |
| 20260506142226 | 67 | 358 | 2.0 | 6.0 | 0.00 | 0.00 | 0.00 | 88 | 1011.5 |
| 20260506141724 | 67 | 11 | 1.0 | 5.0 | 0.00 | 0.00 | 0.00 | 87 | 1011.3 |
| 20260506141220 | 68 | 0.0 | 3.0 | 0.00 | 0.00 | 0.00 | 87 | 1011.2 | |
| 20260506140718 | 69 | 0.0 | 3.0 | 0.00 | 0.00 | 0.00 | 87 | 1011.0 | |
| 20260506140216 | 70 | 0.0 | 3.0 | 0.00 | 0.00 | 0.00 | 87 | 1010.9 | |
| 20260506135714 | 71 | 26 | 1.0 | 6.0 | 0.00 | 0.00 | 0.00 | 86 | 1011.1 |
| 20260506135210 | 72 | 0.0 | 11.0 | 0.00 | 0.00 | 0.00 | 85 | 1011.1 | |
| 20260506134708 | 74 | 17 | 2.0 | 11.0 | 0.00 | 0.00 | 0.00 | 93 | 1010.9 |
| 20260506134206 | 74 | 0.0 | 0.0 | 0.00 | 0.00 | 0.00 | 93 | 1010.6 | |
| 20260506133704 | 74 | 0.0 | 0.0 | 0.00 | 0.00 | 0.00 | 93 | 1010.2 | |
| 20260506133200 | 74 | 0.0 | 0.0 | 0.00 | 0.00 | 0.00 | 93 | 1010.3 | |
| 20260506132658 | 74 | 0.0 | 0.0 | 0.00 | 0.00 | 0.00 | 93 | 1010.5 | |
| 20260506132156 | 74 | 0.0 | 0.0 | 0.00 | 0.00 | 0.00 | 93 | 1010.5 | |
| 20260506131654 | 74 | 0.0 | 0.0 | 0.00 | 0.00 | 0.00 | 94 | 1010.4 | |
| 20260506131150 | 74 | 0.0 | 0.0 | 0.00 | 0.00 | 0.00 | 94 | 1010.4 | |
| 20260506130648 | 74 | 0.0 | 0.0 | 0.00 | 0.00 | 0.00 | 94 | 1010.2 | |
| 20260506130146 | 74 | 0.0 | 0.0 | 0.00 | 0.00 | 0.00 | 94 | 1009.9 | |
| 20260506125644 | 73 | 0.0 | 0.0 | 0.00 | 0.00 | 0.00 | 94 | 1009.9 | |
| 20260506125140 | 73 | 0.0 | 0.0 | 0.00 | 0.00 | 0.00 | 94 | 1009.9 | |
| 20260506124638 | 73 | 0.0 | 0.0 | 0.00 | 0.00 | 0.00 | 94 | 1009.9 | |
| 20260506124136 | 73 | 0.0 | 0.0 | 0.00 | 0.00 | 0.00 | 94 | 1009.7 | |
| 20260506123634 | 73 | 0.0 | 0.0 | 0.00 | 0.00 | 0.00 | 94 | 1009.6 | |
| 20260506123130 | 73 | 0.0 | 0.0 | 0.00 | 0.00 | 0.00 | 93 | 1009.7 | |
| 20260506122628 | 72 | 0.0 | 0.0 | 0.00 | 0.00 | 0.00 | 93 | 1009.7 | |
| 20260506122126 | 72 | 0.0 | 0.0 | 0.00 | 0.00 | 0.00 | 93 | 1009.5 | |
| 20260506121624 | 72 | 0.0 | 0.0 | 0.00 | 0.00 | 0.00 | 93 | 1009.5 | |
| 20260506121120 | 72 | 0.0 | 0.0 | 0.00 | 0.00 | 0.00 | 93 | 1009.5 | |
| 20260506120618 | 72 | 0.0 | 0.0 | 0.00 | 0.00 | 0.00 | 92 | 1009.5 | |
| 20260506120114 | 72 | 0.0 | 0.0 | 0.00 | 0.00 | 0.00 | 92 | 1009.5 | |
| 20260506115612 | 72 | 0.0 | 0.0 | 0.00 | 0.00 | 0.00 | 92 | 1009.4 | |
| 20260506115110 | 73 | 0.0 | 0.0 | 0.00 | 0.00 | 0.00 | 92 | 1009.4 | |
| 20260506114608 | 73 | 0.0 | 0.0 | 0.00 | 0.00 | 0.00 | 92 | 1009.4 | |
| 20260506114104 | 73 | 0.0 | 0.0 | 0.00 | 0.00 | 0.00 | 92 | 1009.4 | |
| 20260506113602 | 73 | 0.0 | 0.0 | 0.00 | 0.00 | 0.00 | 92 | 1009.3 | |
| 20260506113100 | 73 | 0.0 | 0.0 | 0.00 | 0.00 | 0.00 | 92 | 1009.4 | |
| 20260506112558 | 73 | 0.0 | 0.0 | 0.00 | 0.00 | 0.00 | 92 | 1009.4 | |
| 20260506112054 | 74 | 0.0 | 0.0 | 0.00 | 0.00 | 0.00 | 92 | 1009.5 | |
| 20260506111552 | 74 | 0.0 | 0.0 | 0.00 | 0.00 | 0.00 | 92 | 1009.4 | |
| 20260506111050 | 74 | 0.0 | 0.0 | 0.00 | 0.00 | 0.00 | 91 | 1009.5 | |
| 20260506110548 | 74 | 0.0 | 0.0 | 0.00 | 0.00 | 0.00 | 91 | 1009.5 | |
| 20260506110044 | 74 | 0.0 | 0.0 | 0.00 | 0.00 | 0.00 | 91 | 1009.5 | |
| 20260506105542 | 74 | 0.0 | 0.0 | 0.00 | 0.00 | 0.00 | 91 | 1009.5 | |
| 20260506105040 | 74 | 0.0 | 0.0 | 0.00 | 0.00 | 0.00 | 91 | 1009.5 | |
| 20260506104538 | 74 | 0.0 | 0.0 | 0.00 | 0.00 | 0.00 | 91 | 1009.5 | |
| 20260506104034 | 74 | 0.0 | 0.0 | 0.00 | 0.00 | 0.00 | 91 | 1009.5 | |
| 20260506103532 | 74 | 0.0 | 0.0 | 0.00 | 0.00 | 0.00 | 91 | 1009.4 | |
| 20260506103030 | 74 | 0.0 | 0.0 | 0.00 | 0.00 | 0.00 | 91 | 1009.3 | |
| 20260506102528 | 74 | 0.0 | 0.0 | 0.00 | 0.00 | 0.00 | 91 | 1009.2 | |
| 20260506102024 | 74 | 0.0 | 1.0 | 0.00 | 0.00 | 0.00 | 91 | 1009.2 | |
| 20260506101522 | 74 | 0.0 | 1.0 | 0.00 | 0.00 | 0.00 | 91 | 1009.1 | |
| 20260506101020 | 74 | 0.0 | 0.0 | 0.00 | 0.00 | 0.00 | 90 | 1009.2 | |
| 20260506100518 | 74 | 0.0 | 4.0 | 0.00 | 0.00 | 0.00 | 90 | 1009.0 | |
| 20260506100014 | 74 | 0.0 | 4.0 | 0.00 | 0.00 | 0.00 | 90 | 1009.0 | |
| 20260506095512 | 75 | 0.0 | 0.0 | 0.00 | 0.00 | 0.00 | 90 | 1008.9 | |
| 20260506095010 | 75 | 0.0 | 0.0 | 0.00 | 0.00 | 0.00 | 89 | 1008.9 | |
| 20260506094508 | 75 | 0.0 | 4.0 | 0.00 | 0.00 | 0.00 | 89 | 1008.9 | |
| 20260506094004 | 75 | 171 | 1.0 | 5.0 | 0.00 | 0.00 | 0.00 | 89 | 1008.8 |
| 20260506093502 | 75 | 0.0 | 0.0 | 0.00 | 0.00 | 0.00 | 89 | 1008.8 | |
| 20260506092958 | 75 | 0.0 | 0.0 | 0.00 | 0.00 | 0.00 | 89 | 1008.6 | |
| 20260506092456 | 75 | 0.0 | 0.0 | 0.00 | 0.00 | 0.00 | 88 | 1008.5 | |
| 20260506091954 | 75 | 0.0 | 1.0 | 0.00 | 0.00 | 0.00 | 89 | 1008.6 | |
| 20260506091452 | 75 | 0.0 | 0.0 | 0.00 | 0.00 | 0.00 | 88 | 1008.6 | |
| 20260506090948 | 75 | 0.0 | 0.0 | 0.00 | 0.00 | 0.00 | 88 | 1008.5 |